RH
67 55 40 27 21 21 25 30 34 35 36 40 47 45 34 22 13 9 8 7 7 10 11 12 11 11 11 12 12 13 13 12 12 12 12 12 12 13 13 14 15 16 17 18 19 20 22 23 25 26 27 27 26 26 25 23 23 21 20 20 21 21 20 21 22 22 20 17 15 14 18 25 34 44 53 61 66 73 83 90 93 97 101 102 101 102 100
39 29 22 21 24 27 30 32 34 38 41 41 37 27 15 9 7 7 8 9 10 11 11 11 11 11 12 12 12 12 11 11 11 11 12 13 15 16 17 18 20 21 22 23 25 26 27 28 28 26 25 24 22 21 20 19 19 19 20 22 22 22 20 17 15 14 13 15 20 27 38 46 50 53 59 69 79 88 95 98 99 101 102 101 98 90 75
23 25 27 29 29 29 31 35 39 42 37 27 18 12 8 7 8 9 9 10 10 11 11 11 12 12 11 11 10 11 11 12 13 13 15 17 19 21 22 23 25 27 29 30 30 28 26 24 21 19 18 18 18 18 19 20 21 21 21 20 19 17 14 12 12 16 22 32 39 42 43 47 52 60 72 83 92 99 101 101 101 100 94 80 66 54 39
32 32 30 27 27 32 38 42 40 30 19 11 8 8 9 9 10 10 10 10 10 11 11 10 10 10 9 11 11 13 14 16 17 19 21 23 25 26 28 30 31 31 29 27 23 20 18 15 15 15 16 18 19 19 20 20 18 17 15 13 13 14 17 23 30 38 43 45 46 44 45 55 70 81 89 94 98 101 100 96 87 76 63 45 32 28 27
32 27 27 29 35 41 40 33 22 12 8 7 8 9 10 10 11 10 10 10 9 9 9 9 10 10 11 14 16 18 20 21 24 26 27 28 30 32 32 29 26 23 20 18 15 14 13 12 14 15 16 17 16 15 14 13 12 12 12 15 20 28 37 43 46 47 44 42 49 57 65 78 90 95 97 97 96 90 80 69 56 45 38 29 22 22 23
25 30 37 40 40 35 22 13 9 7 8 9 9 11 11 10 10 10 9 9 8 9 10 10 12 14 17 20 22 24 25 27 29 29 30 32 33 30 24 19 17 17 17 16 14 13 12 12 13 13 12 12 11 11 12 12 14 17 22 30 36 41 43 40 40 46 49 54 67 76 83 91 95 95 93 86 76 64 51 42 36 30 27 24 23 25 29
34 39 38 30 21 15 8 7 8 9 9 10 11 11 10 9 9 9 8 9 10 12 13 15 18 22 24 26 27 28 29 29 30 31 34 33 26 18 15 16 19 20 18 16 14 13 12 12 11 10 10 10 12 15 18 21 26 32 36 39 38 35 33 33 43 61 71 73 80 84 87 91 89 83 75 63 51 43 37 34 31 27 25 27 33 41 47
32 26 18 11 7 7 8 9 9 10 10 10 10 9 9 9 10 10 11 12 14 17 19 22 25 28 28 28 29 29 29 30 33 35 32 23 15 14 16 20 22 20 17 14 12 11 10 10 11 11 13 15 19 24 28 32 35 35 32 30 29 32 41 49 62 79 83 80 81 82 80 78 73 63 53 43 36 34 33 31 29 29 35 44 51 53 49
13 8 7 8 8 9 9 9 9 9 8 8 9 9 10 11 13 14 15 18 21 24 26 28 29 29 29 28 29 30 32 34 34 28 19 12 13 18 20 21 21 17 13 11 9 10 11 13 16 18 20 24 27 30 30 29 28 27 28 33 40 52 64 70 77 84 84 79 76 72 67 63 54 44 37 34 32 31 31 34 40 48 55 56 50 40 30
7 8 9 9 9 9 8 8 8 8 9 10 11 12 13 15 18 20 22 26 28 29 29 29 28 28 29 29 31 33 33 30 23 14 10 12 16 20 20 19 16 11 10 10 11 13 16 19 23 25 27 28 27 26 24 25 30 38 47 55 63 71 76 76 78 80 78 73 66 60 55 49 40 34 32 32 31 35 42 52 58 57 49 39 30 23 18
9 9 8 8 8 8 9 10 11 12 13 13 14 16 19 22 25 28 29 30 31 29 29 30 29 30 32 33 33 30 23 16 10 9 12 15 17 17 15 13 11 10 12 14 16 18 21 24 26 26 26 24 23 26 33 43 54 62 66 69 72 75 75 73 71 70 67 61 54 49 44 38 34 33 34 36 43 53 62 63 56 41 27 21 18 16 14
8 8 9 9 11 12 13 14 14 15 16 17 20 24 27 28 30 31 31 32 32 32 33 33 32 32 31 27 22 16 10 8 9 11 14 14 13 12 11 11 12 14 17 19 21 22 23 23 22 22 23 27 36 46 55 64 71 72 71 71 70 72 71 66 62 60 55 50 46 42 38 33 31 36 44 54 62 64 58 48 35 24 18 17 15 15 15
11 12 13 14 15 16 17 17 19 21 23 25 27 29 30 29 30 31 30 31 31 31 29 27 24 20 17 13 9 7 7 9 10 11 11 11 11 11 12 14 16 18 21 22 21 20 20 21 24 29 38 47 56 64 67 70 72 71 69 66 64 65 64 59 55 52 48 45 43 40 36 35 41 52 62 67 61 47 37 30 24 19 17 17 16 17 18
16 17 19 20 21 22 23 24 26 27 27 27 26 26 25 24 24 23 22 21 19 17 15 13 10 9 8 7 7 7 8 9 9 10 11 11 12 14 16 18 18 19 19 19 20 23 28 34 40 48 57 62 65 66 67 68 68 67 64 61 59 58 57 53 50 48 46 44 40 37 40 49 61 69 69 59 43 29 25 25 22 19 18 18 18 19 19
23 24 25 25 26 26 25 24 23 22 21 20 19 17 16 15 14 12 11 9 9 8 7 7 7 7 7 7 8 9 10 10 11 12 13 14 16 17 17 17 18 19 21 26 33 40 46 52 56 59 62 64 63 61 62 63 63 62 60 58 56 55 53 51 49 46 45 41 38 43 56 68 73 68 56 41 28 22 21 21 20 20 20 20 21 21 21
27 26 25 23 22 20 18 17 16 14 13 11 10 9 8 7 7 6 6 7 7 8 8 9 9 9 9 10 11 12 13 14 14 15 16 16 16 16 17 19 24 30 37 44 51 55 57 59 59 58 59 60 59 57 58 60 60 59 58 57 55 53 51 49 47 44 42 43 50 63 74 74 66 55 41 28 22 21 21 21 21 22 22 22 22 21 21
24 22 20 19 17 15 13 11 9 8 7 6 6 6 6 6 6 7 8 9 10 11 11 11 12 12 13 13 14 14 14 15 15 15 15 15 17 19 24 30 38 46 51 54 57 58 58 57 56 57 58 59 58 57 58 59 59 59 58 56 54 52 49 47 44 43 48 59 71 77 73 60 49 40 31 24 22 22 23 23 23 23 23 22 22 21 21
22 21 19 16 13 10 7 6 5 5 6 5 6 6 5 6 7 7 9 10 11 12 12 12 12 12 12 13 13 13 13 13 14 16 18 21 25 29 35 41 48 53 54 54 55 56 55 55 54 55 57 58 59 59 60 60 59 59 57 55 54 52 50 48 47 53 66 77 79 71 57 45 37 31 26 24 24 24 24 25 24 24 23 23 22 23 23
24 22 20 17 14 11 9 8 8 8 8 8 8 8 9 8 8 8 9 10 10 11 12 13 14 14 15 16 17 17 19 21 24 27 30 32 35 38 43 48 51 53 53 53 54 53 54 54 53 53 56 59 60 61 61 61 60 58 56 56 55 52 51 53 61 72 80 79 69 54 42 36 32 28 26 26 26 26 26 25 25 24 24 24 25 26 27
27 27 25 23 21 19 17 17 16 17 17 17 17 18 19 18 17 16 17 17 18 19 20 21 23 24 25 27 28 29 31 33 36 38 39 42 43 45 48 51 51 51 51 52 52 52 52 53 54 55 58 60 61 61 62 62 59 57 57 57 56 54 58 67 77 82 79 68 54 42 35 32 30 28 27 27 27 27 26 26 26 27 26 27 28 29 31
33 33 32 31 30 29 28 29 29 29 29 29 29 30 30 29 28 28 28 29 30 31 31 31 32 33 34 36 37 38 40 42 44 44 45 46 47 48 48 48 48 48 49 49 50 51 52 53 56 58 59 61 62 62 62 61 59 59 59 58 58 63 72 81 84 77 66 53 42 35 31 30 30 29 29 29 29 29 29 28 28 28 28 29 30 33 36
36 35 35 34 33 33 33 32 32 32 33 33 33 33 33 33 33 34 34 35 35 35 36 36 37 38 40 41 42 44 45 46 46 46 46 47 47 48 48 47 47 47 48 48 50 52 53 55 57 59 61 63 64 63 61 61 62 63 62 62 68 77 84 86 78 62 51 43 36 32 31 31 31 31 31 31 31 31 31 30 29 29 30 32 33 36 39
32 30 30 29 29 29 29 30 30 30 31 31 31 31 31 32 32 32 33 34 35 36 37 38 40 42 43 44 45 46 46 46 47 47 47 48 48 48 48 47 48 49 50 50 52 54 56 57 59 60 63 65 65 63 63 65 67 67 68 73 82 87 86 79 64 48 40 38 34 32 33 33 33 34 34 33 34 33 32 31 31 31 33 34 36 39 42
25 25 25 25 25 26 26 27 28 28 29 30 31 31 31 32 31 31 32 33 34 35 37 39 41 43 44 44 45 46 45 46 46 46 46 47 48 48 49 49 49 50 51 51 52 55 57 59 61 63 65 67 66 65 68 72 72 73 79 86 89 84 77 66 51 39 36 35 33 34 35 35 35 35 35 35 34 32 31 31 31 32 35 37 40 44 46
23 22 23 22 22 23 23 23 24 24 25 26 27 28 30 32 32 33 33 34 34 35 36 38 40 41 41 42 43 43 43 43 43 44 45 46 46 47 48 48 47 48 50 52 54 57 60 62 65 67 69 70 69 71 75 78 79 83 89 90 84 77 68 56 43 36 36 36 35 36 37 37 37 37 36 35 33 32 32 31 32 34 37 41 45 48 49
23 23 23 23 23 23 23 23 23 23 23 23 24 25 27 27 28 29 31 32 34 36 37 37 38 39 38 38 40 41 40 40 40 42 43 43 44 44 45 47 48 50 52 54 57 60 63 66 69 71 72 75 76 79 82 85 88 91 91 85 76 67 57 46 39 37 37 37 38 38 37 38 39 38 36 35 33 32 33 33 35 38 41 46 50 52 52
26 26 26 26 26 26 25 25 25 25 26 26 26 26 27 27 26 27 27 27 30 34 35 35 37 37 35 36 38 39 38 38 39 41 42 42 43 44 46 49 51 53 56 59 61 65 68 71 73 75 77 81 84 87 89 92 93 92 87 76 65 56 47 41 38 39 39 39 40 40 39 39 39 38 37 35 33 33 35 36 39 43 47 51 54 54 54
30 29 28 27 27 27 27 27 27 27 28 28 28 29 30 29 28 28 29 28 29 31 32 32 33 33 33 36 37 37 36 38 39 40 41 42 44 46 49 53 56 58 61 65 68 71 74 76 78 81 84 89 91 92 93 94 92 88 79 67 56 48 43 41 40 41 41 42 42 42 42 42 41 39 37 35 34 36 38 41 45 50 54 57 57 56 54
31 30 29 27 27 27 27 27 28 28 29 29 30 30 31 31 30 30 31 31 31 31 31 31 32 32 32 35 35 34 35 37 38 39 41 43 47 51 54 59 63 66 69 72 76 78 80 82 84 88 92 95 94 94 94 94 89 82 71 60 51 45 43 42 43 43 44 44 45 46 46 44 41 39 37 36 37 40 43 48 53 56 58 60 59 57 52
29 29 28 27 27 26 27 28 29 29 30 31 31 31 33 34 32 31 33 33 33 32 31 31 32 32 33 33 32 33 35 36 37 39 43 47 51 56 60 65 69 73 77 81 83 85 87 89 92 95 97 97 95 94 94 91 83 74 64 55 48 45 44 45 46 46 47 48 49 49 48 45 42 39 38 39 42 45 48 53 57 60 62 63 61 55 50
26 27 27 27 28 27 27 28 30 30 31 32 33 34 34 35 34 33 34 34 34 33 32 32 32 32 32 32 31 33 36 36 36 40 45 48 53 58 64 70 76 81 85 88 90 92 94 95 97 99 98 97 96 95 92 85 76 67 58 51 47 46 47 48 49 50 51 52 52 52 49 45 42 40 40 42 45 48 53 58 61 65 67 66 59 52 52
24 25 26 27 28 28 28 28 30 31 32 33 34 35 34 35 35 34 34 35 34 32 31 32 31 31 31 30 30 33 34 35 37 41 45 49 54 61 68 77 85 90 93 94 97 98 99 100 101 100 98 97 96 93 87 79 70 62 54 50 49 49 50 51 53 55 56 56 55 52 48 43 41 41 42 44 47 52 58 64 68 70 70 65 57 52 59
22 23 25 26 27 28 29 28 30 32 33 33 34 35 34 35 36 35 34 35 34 32 31 31 31 31 31 30 32 36 38 39 43 46 49 54 60 68 78 87 94 98 99 99 100 101 101 102 101 98 97 98 95 89 82 74 65 58 53 51 51 52 53 56 58 59 60 59 57 52 46 42 41 42 45 49 53 59 65 69 73 74 71 64 55 53 66
20 21 23 24 25 27 29 29 29 31 33 34 34 35 35 36 36 35 34 34 34 33 32 31 31 33 33 34 37 39 41 45 49 51 55 63 72 80 90 98 101 102 101 101 102 102 102 103 101 97 97 97 92 85 78 70 62 57 54 53 54 55 57 59 61 63 63 61 56 50 44 42 43 46 51 55 60 66 71 76 78 77 71 62 54 57 75
18 20 21 23 24 25 27 28 29 30 33 34 34 35 36 37 38 37 36 36 35 34 33 32 33 35 36 38 41 44 45 48 51 54 61 73 81 88 96 101 102 102 101 100 102 103 103 101 100 98 96 94 88 81 74 66 60 57 55 56 56 57 58 60 62 65 65 60 53 47 44 45 48 52 56 60 65 72 78 81 81 77 70 60 55 63 83
18 19 20 22 23 24 26 28 29 30 32 33 33 35 37 38 40 40 38 37 37 36 35 36 37 38 40 42 44 45 46 48 52 59 68 77 84 90 96 100 101 100 99 99 100 102 101 99 97 97 95 90 84 77 70 64 60 58 57 58 58 59 59 60 63 66 65 58 50 47 46 48 52 55 59 64 71 77 82 84 82 77 69 60 57 69 89
17 18 20 21 23 23 25 28 29 30 32 33 33 35 37 39 41 41 40 41 41 40 39 40 42 42 41 41 41 42 44 49 58 66 72 77 84 89 94 97 97 95 95 97 97 98 99 96 93 93 92 86 79 73 67 63 60 59 58 58 59 60 62 65 67 68 63 54 49 49 49 51 54 58 63 70 77 81 85 86 83 77 68 60 62 77 95
17 19 20 21 23 24 25 28 29 30 32 33 34 36 39 40 42 44 43 44 45 42 41 43 43 38 33 33 36 39 44 51 60 66 68 74 82 87 90 91 88 85 89 94 94 92 92 90 88 88 87 81 74 70 66 62 60 58 57 58 61 64 67 70 70 66 58 51 50 51 52 53 57 62 69 76 81 85 90 91 86 77 69 63 68 84 97
18 20 20 21 23 24 25 28 29 30 32 34 34 36 39 42 44 45 44 43 44 43 41 38 34 27 24 26 31 36 41 48 55 59 65 73 79 80 80 80 77 77 84 89 86 81 81 82 82 82 80 74 70 67 65 61 58 56 56 60 64 67 70 72 70 62 55 52 52 54 55 58 61 66 73 79 83 89 95 95 87 78 70 66 73 86 94
19 20 20 22 23 23 25 28 29 30 33 34 34 36 40 44 45 44 43 43 43 40 34 26 20 16 17 20 25 31 36 40 45 55 67 74 74 71 70 69 67 71 79 79 73 69 72 75 77 76 72 69 67 65 62 59 57 57 60 64 67 70 72 72 66 58 54 54 56 58 62 64 65 70 77 83 87 94 98 96 88 80 71 68 76 86 91
20 20 21 22 23 23 26 28 29 31 33 34 35 37 42 44 44 42 42 43 40 32 22 15 11 11 13 15 18 24 29 33 41 55 66 68 65 63 62 60 62 67 68 64 60 62 66 70 72 70 66 65 64 62 60 60 60 61 64 67 69 72 74 69 61 56 56 57 60 63 66 67 68 73 80 87 93 98 99 95 89 82 73 71 78 87 90
21 21 22 22 22 24 26 27 29 31 33 34 35 39 42 43 43 42 43 40 32 21 13 8 7 9 11 11 13 18 24 32 45 56 59 54 51 51 51 52 55 57 55 53 55 59 61 63 65 64 64 63 63 61 62 64 64 65 66 69 72 74 71 63 58 58 59 61 63 65 66 66 69 75 81 90 97 100 97 94 91 82 72 72 80 86 87
21 21 22 22 22 24 26 28 29 31 33 35 37 40 44 44 44 44 43 36 23 12 7 5 4 6 7 8 12 18 25 32 41 46 43 39 39 39 39 40 42 42 43 47 51 54 55 56 57 58 60 62 61 60 62 65 67 68 71 74 75 72 66 60 59 61 63 64 65 64 62 64 71 78 84 90 96 97 95 94 91 80 70 71 79 82 82
22 21 21 22 22 23 25 27 28 30 34 36 37 41 45 46 45 46 41 28 13 6 4 4 4 5 6 8 12 17 21 24 27 28 25 25 27 26 24 27 29 30 33 39 43 45 48 50 50 53 58 60 58 58 63 67 71 74 76 76 73 67 62 61 63 64 66 66 64 59 57 62 72 80 85 87 89 91 91 90 85 75 67 68 74 77 78
22 21 21 22 22 22 24 27 28 31 35 37 38 43 45 45 46 44 32 16 5 3 4 3 3 4 5 8 11 13 13 13 14 14 12 14 16 15 14 18 21 23 26 30 33 36 41 45 48 54 58 58 58 61 65 69 72 74 74 72 68 64 63 64 66 67 67 63 56 51 53 60 71 79 82 81 81 84 85 81 75 68 65 66 70 74 78
22 21 20 21 21 21 24 27 30 34 37 38 41 45 46 47 46 38 20 7 3 4 3 3 3 4 4 6 7 7 6 6 8 8 8 9 10 11 12 15 17 18 22 26 28 32 38 44 50 55 58 59 62 65 67 69 71 71 69 67 65 64 66 67 67 67 64 56 47 45 49 57 66 74 78 76 76 80 81 76 68 63 63 65 67 72 78
21 20 20 20 20 21 24 28 32 37 39 40 43 45 47 48 43 28 11 3 3 3 2 3 3 3 3 4 4 5 5 5 6 7 7 8 9 11 12 15 16 18 22 26 30 34 41 47 52 56 58 61 63 65 67 70 71 68 65 65 66 67 68 68 68 64 57 46 40 40 45 50 58 67 73 73 72 73 76 74 67 62 63 65 68 73 78
20 19 19 18 19 22 25 30 35 39 40 41 44 46 48 47 36 17 5 3 3 3 3 3 3 3 4 4 4 4 5 5 6 7 8 9 10 11 13 15 17 20 24 28 32 37 43 47 51 55 58 60 62 65 68 70 69 66 65 67 69 70 70 69 66 59 48 39 35 36 38 42 50 59 67 70 70 68 70 70 66 62 63 66 72 77 79
18 18 17 17 19 23 26 31 37 39 40 41 44 48 49 43 26 9 2 3 3 2 3 3 3 3 4 4 4 5 5 5 7 8 9 10 12 13 15 17 19 21 25 29 33 37 42 46 49 53 56 59 62 65 68 68 66 65 67 69 71 71 71 69 62 52 41 34 33 33 32 36 44 51 58 64 67 66 63 61 62 63 66 70 77 81 80
17 17 16 16 19 23 27 33 38 39 40 42 47 50 49 36 17 4 2 3 3 2 3 3 3 4 4 3 5 6 6 6 8 9 10 12 13 15 16 18 20 22 26 29 33 37 41 44 49 53 57 60 63 65 66 66 66 67 69 71 72 73 72 66 57 46 36 32 31 30 30 34 40 43 47 54 59 59 56 56 60 66 72 78 83 84 80
16 15 14 16 18 22 28 34 37 38 40 44 49 51 45 27 9 2 3 3 2 3 3 3 3 4 4 4 5 6 7 8 10 10 12 14 15 16 18 20 21 24 27 30 33 37 41 44 50 54 58 61 63 63 65 67 68 69 71 72 73 73 70 63 51 41 34 31 29 28 30 34 37 39 41 45 50 53 55 58 63 69 76 82 86 85 79
16 14 14 16 18 22 28 34 36 38 41 46 51 50 38 18 4 2 3 3 2 3 3 3 4 4 4 5 6 7 8 10 11 12 14 16 17 18 20 21 23 26 28 31 35 39 42 46 51 55 58 61 63 64 66 68 70 71 73 73 73 72 68 59 47 38 33 30 28 28 31 35 36 37 40 44 47 51 58 63 66 70 76 82 85 84 79
Wind_Speed
16 16 14 11 9 7 5 3 2 2 3 3 4 5 6 7 8 8 9 9 10 10 11 12 13 14 15 16 17 18 20 21 22 23 24 24 25 25 26 27 28 29 30 31 32 33 34 35 36 37 38 39 40 41 41 41 41 41 40 39 38 38 37 36 34 33 33 34 34 35 35 35 36 36 36 37 38 39 41 42 43 44 43 42 42 42 43
13 10 8 5 4 3 1 1 2 3 4 4 5 6 7 8 8 9 9 10 10 11 12 13 15 16 17 18 19 20 21 22 22 23 24 24 25 27 28 29 30 32 33 34 36 36 37 38 39 40 40 40 40 40 40 39 38 37 36 35 34 35 35 35 35 33 32 32 33 34 35 36 37 39 39 39 39 40 41 41 42 43 42 41 41 41 41
6 4 2 1 1 0 1 2 3 4 5 5 6 7 8 8 8 9 10 11 12 13 14 15 17 18 19 20 20 21 21 22 23 24 25 26 28 29 31 32 33 35 36 37 39 40 40 40 40 39 38 37 37 36 35 34 33 33 33 32 32 32 32 34 34 34 33 34 35 37 38 39 39 40 40 40 40 40 40 41 41 40 39 39 39 40 40
1 1 1 1 1 2 3 3 4 4 5 6 7 7 8 8 9 10 11 12 13 15 16 17 18 18 19 19 20 20 22 23 25 27 28 29 31 32 34 36 37 39 40 40 39 38 37 36 35 34 33 33 32 31 31 31 31 31 31 31 30 30 31 32 32 33 35 36 38 39 41 41 41 40 40 39 39 38 38 39 39 38 38 37 38 40 41
2 2 2 2 2 3 3 4 4 5 6 7 7 7 8 8 10 11 13 14 16 16 17 17 17 18 19 19 21 23 24 26 27 29 30 32 34 36 39 40 40 39 37 35 33 32 31 31 30 30 30 30 30 30 30 30 30 30 30 29 30 30 30 31 32 34 37 38 39 40 40 40 40 39 38 37 37 37 37 38 38 38 38 38 39 42 44
3 3 3 3 3 3 4 5 5 6 7 8 8 8 9 10 12 13 14 15 16 16 16 17 18 19 21 22 23 25 26 28 29 31 33 35 38 40 41 39 36 33 31 29 29 28 29 29 29 29 29 29 29 29 29 28 28 29 29 29 31 32 32 33 34 35 38 39 40 40 39 38 37 37 36 36 37 37 37 37 38 38 39 41 43 45 48
3 3 3 3 3 4 5 6 7 8 8 9 10 10 12 13 13 14 14 15 15 16 18 19 20 22 23 24 25 26 28 30 31 33 36 39 40 39 36 32 30 28 28 28 28 28 28 28 28 28 28 28 27 27 27 27 28 29 31 32 33 34 35 36 35 36 38 39 39 39 38 36 35 36 36 37 37 38 38 39 40 40 42 44 46 48 50
3 3 3 4 5 5 7 7 8 9 10 11 11 12 12 13 13 14 15 16 17 19 20 21 22 23 24 25 26 28 30 32 34 37 39 39 36 33 30 28 28 28 28 29 29 28 28 28 27 27 26 26 27 27 28 29 30 31 33 34 35 36 36 37 36 36 37 38 38 38 37 36 35 35 36 37 38 39 40 41 42 42 44 46 47 48 49
3 4 4 6 7 7 8 9 10 11 11 11 12 12 12 13 14 16 18 19 20 21 22 23 24 25 26 27 29 30 33 35 37 39 37 34 30 29 28 28 29 29 29 29 28 27 27 27 27 27 27 27 29 30 30 31 32 34 35 35 36 36 37 37 36 36 37 38 38 38 38 37 36 35 36 38 39 40 42 43 44 46 47 47 48 49 50
5 5 6 7 8 9 10 10 11 11 11 12 12 13 14 16 17 19 20 21 22 23 24 24 25 26 27 29 31 33 36 37 37 35 31 29 28 28 28 29 29 29 28 27 27 26 26 27 28 29 29 30 31 32 33 34 34 35 36 36 36 36 36 37 36 36 36 37 38 39 39 38 36 36 37 39 40 41 43 45 46 47 47 49 50 52 54
6 7 8 8 9 10 10 11 11 12 13 14 15 17 18 19 20 21 22 22 23 24 25 26 27 29 30 32 34 36 36 35 32 29 28 27 27 27 28 28 28 27 26 26 26 27 27 28 30 30 31 32 33 34 34 34 34 35 36 36 36 36 37 37 37 36 35 36 36 37 37 37 36 38 39 40 42 43 45 46 46 47 48 51 54 56 58
8 8 9 9 10 10 11 12 13 14 16 17 18 19 20 21 22 23 24 24 25 26 27 29 30 31 33 34 34 34 32 30 28 27 26 26 26 26 27 27 26 26 26 26 27 28 29 30 31 32 32 33 33 33 33 33 34 35 36 37 37 37 37 37 37 37 36 37 37 37 37 36 37 39 41 43 43 45 46 47 48 49 51 53 56 58 60
9 9 10 10 11 12 13 15 16 18 19 20 21 21 22 23 24 25 27 27 28 29 30 31 32 32 32 31 30 28 27 26 26 25 25 25 25 25 26 26 26 26 27 28 29 30 31 31 32 32 32 32 33 33 33 33 34 35 36 37 37 36 36 37 38 38 38 38 39 39 39 38 40 42 43 44 44 45 46 47 48 51 53 55 58 61 63
10 11 12 13 14 15 17 18 19 20 21 22 23 24 25 26 27 28 28 29 29 29 29 29 29 28 28 27 26 25 25 25 24 24 24 25 25 25 26 27 27 28 29 30 30 31 32 32 32 31 31 32 32 33 33 33 34 35 36 37 37 36 36 37 38 39 39 39 39 40 40 41 43 44 44 44 45 47 49 51 52 54 56 59 62 64 65
12 13 14 16 17 18 20 21 22 23 24 25 25 26 27 27 27 27 27 27 26 26 25 25 25 25 24 23 23 23 24 24 24 24 25 25 26 26 27 28 29 29 30 30 31 31 32 31 31 31 31 32 33 34 35 34 35 35 35 36 36 36 36 37 38 39 40 40 39 41 42 42 43 44 44 45 47 49 52 54 55 56 58 61 63 65 66
15 16 17 19 20 21 22 22 23 24 24 24 25 25 25 24 24 24 23 23 22 22 22 22 22 22 22 22 23 23 23 24 24 25 26 26 27 28 28 29 29 30 30 31 30 31 31 31 32 32 33 33 35 36 36 36 36 36 35 36 37 36 36 37 38 38 39 40 41 42 43 43 43 43 44 46 48 50 53 55 56 58 61 62 64 66 68
17 18 19 20 21 21 22 22 22 22 22 22 22 22 21 21 21 21 20 20 20 21 21 22 22 22 22 23 23 23 24 25 25 26 27 27 28 29 29 29 29 29 30 30 30 30 31 31 32 33 34 34 35 36 36 36 36 36 36 36 36 36 36 36 37 37 39 40 41 42 42 42 43 44 45 47 49 52 55 57 58 60 64 65 66 68 70
18 18 19 19 20 20 20 20 20 20 20 20 20 20 20 19 19 19 20 20 20 21 21 22 22 23 23 24 24 25 25 26 26 27 27 28 28 29 29 29 29 29 29 30 30 30 32 33 33 34 34 35 36 36 36 37 37 37 36 36 37 37 37 37 37 38 40 41 40 41 41 42 44 45 47 49 52 54 57 60 62 63 65 68 70 71 72
17 18 18 19 19 19 19 19 19 19 19 19 19 19 19 19 19 19 19 20 20 20 21 22 23 23 24 24 25 25 26 27 28 28 28 28 28 28 28 29 29 29 29 30 31 32 33 34 35 36 36 36 37 37 36 36 37 37 37 37 37 37 38 38 39 39 40 40 40 40 42 43 45 48 49 51 54 57 59 62 65 66 67 69 71 72 73
17 17 18 18 18 18 19 19 19 19 19 19 19 19 19 20 20 20 20 20 21 21 22 23 24 24 25 25 26 26 27 28 28 28 28 28 28 28 28 28 29 30 30 31 32 33 34 36 36 37 37 37 37 37 36 36 36 36 37 37 38 38 39 40 40 41 41 41 41 43 45 47 49 51 53 54 57 60 62 63 65 67 68 69 71 72 73
17 17 18 18 18 18 19 19 19 19 20 20 20 20 21 21 21 21 22 22 22 23 23 24 25 25 25 26 26 27 27 27 27 27 27 27 27 28 29 29 30 31 32 33 34 35 36 37 37 37 38 37 38 37 36 36 36 36 37 38 38 39 40 41 41 41 41 42 44 46 49 51 53 54 56 58 60 61 63 64 66 67 69 70 71 72 73
18 18 19 19 20 20 20 20 21 21 21 22 22 22 22 22 22 22 23 23 24 24 24 24 25 25 25 25 25 25 26 26 26 27 27 28 28 29 30 31 32 33 34 35 36 37 37 37 38 38 38 38 37 37 37 37 37 37 37 38 38 39 39 39 40 41 43 44 46 49 51 53 55 57 58 60 61 62 64 65 67 68 69 71 72 73 74
19 19 20 21 21 21 22 22 22 23 23 23 23 23 23 23 23 23 24 24 24 24 24 24 24 24 24 24 24 24 25 26 26 27 28 28 29 30 31 32 34 34 35 36 37 37 38 38 38 39 38 38 37 37 37 37 37 37 38 38 38 38 39 40 41 43 44 46 48 50 52 54 56 57 59 60 61 62 64 66 67 69 70 72 74 75 76
21 22 22 23 23 24 24 24 24 25 25 25 25 25 25 24 24 24 24 24 24 24 23 23 23 24 24 24 24 25 26 26 27 27 28 29 30 31 32 33 34 35 36 36 37 38 38 39 39 39 38 37 37 37 37 37 37 37 38 38 37 38 39 41 42 43 46 47 49 51 52 54 56 57 59 60 62 64 66 67 69 71 72 74 76 77 78
23 24 25 26 26 27 27 27 28 28 28 27 27 27 26 26 26 25 25 24 24 24 24 23 23 24 24 24 25 25 26 27 27 28 29 30 31 32 33 34 35 36 37 37 38 39 39 39 39 38 38 37 37 37 37 37 37 37 37 37 37 38 40 41 42 44 46 48 50 51 53 55 57 58 60 62 64 65 67 69 71 72 74 75 76 78 79
25 26 27 27 28 29 30 30 31 31 31 31 30 30 29 28 28 27 27 26 25 25 25 24 24 24 25 25 26 26 27 28 29 30 31 32 33 34 35 36 36 37 38 39 39 39 39 39 38 38 37 37 37 37 36 36 36 36 36 36 37 39 41 42 43 45 47 49 51 53 54 56 59 61 62 64 65 67 69 70 72 73 74 74 76 78 81
25 26 27 28 29 30 31 32 33 34 34 34 34 33 33 32 31 30 29 28 27 26 26 26 26 26 27 27 28 28 29 30 31 32 33 34 35 36 37 37 38 39 39 40 40 40 39 38 37 37 37 37 36 36 36 36 36 36 36 37 39 40 42 43 45 47 49 51 54 56 58 59 61 63 64 65 67 69 70 71 73 74 74 75 76 78 81
25 26 27 28 29 30 31 32 33 34 35 36 36 36 35 35 34 33 32 31 30 29 28 28 28 28 29 29 29 30 31 32 33 34 35 36 37 38 39 39 40 40 40 40 40 39 38 38 37 37 37 36 36 36 36 36 35 36 36 38 39 41 43 45 47 49 52 54 56 58 60 61 62 64 66 67 69 71 72 73 74 74 75 76 78 80 81
26 27 28 29 30 30 31 32 33 34 35 36 36 37 37 37 37 36 34 33 32 31 30 30 30 30 30 31 31 32 33 34 35 36 37 38 39 40 40 40 41 41 41 40 39 38 38 38 38 37 37 36 36 36 36 35 35 36 37 39 41 43 46 48 50 52 54 56 58 60 61 62 64 65 67 69 71 72 73 73 74 75 76 78 79 81 82
26 27 28 29 30 31 31 31 32 33 35 35 37 38 39 39 39 38 37 36 34 33 33 32 32 32 32 33 33 34 35 36 37 38 39 41 41 41 42 42 42 41 41 40 39 38 38 38 38 38 37 36 36 36 35 35 36 37 39 41 43 46 48 50 52 54 56 58 59 61 62 63 64 66 68 70 71 72 73 74 75 76 77 78 79 81 81
25 27 28 28 29 31 32 32 32 33 35 36 37 39 40 41 41 41 40 39 37 36 34 33 33 33 34 34 35 36 37 38 39 41 42 42 43 43 44 44 43 42 41 40 39 39 39 39 38 37 37 36 36 36 35 36 37 39 41 43 45 47 50 52 54 56 57 59 60 61 63 64 65 67 69 70 72 73 73 74 75 76 77 78 80 81 79
24 26 27 28 29 30 32 33 33 34 36 37 38 40 41 43 44 44 43 42 40 38 36 35 35 35 35 36 37 38 39 40 41 42 43 43 44 45 45 44 43 42 41 40 40 39 39 38 37 37 37 36 36 36 36 38 39 41 43 45 47 49 51 53 55 57 58 59 60 61 63 65 67 69 70 72 73 74 74 75 75 76 77 78 79 79 76
24 25 26 28 29 30 31 33 34 35 37 38 39 41 43 44 46 46 46 45 43 41 39 38 37 37 38 39 39 40 41 42 42 43 44 44 45 45 44 43 42 42 41 40 40 39 38 37 37 37 37 36 36 36 37 39 41 43 45 47 49 51 53 55 57 58 59 61 62 63 65 67 69 71 72 73 74 75 75 75 76 76 77 78 78 77 73
24 25 26 28 29 31 32 34 35 36 38 39 41 42 44 46 47 48 48 47 46 43 41 41 41 41 41 42 43 43 44 44 44 44 45 45 44 44 43 43 42 41 41 40 39 39 37 37 37 37 37 36 36 38 39 41 43 44 46 48 50 52 54 56 57 59 60 62 64 65 67 68 70 71 73 74 74 75 75 75 75 75 76 77 77 75 71
24 25 26 28 30 31 33 34 36 37 39 40 42 43 45 47 48 50 50 49 47 45 44 44 44 44 44 44 45 45 45 45 45 45 45 45 45 44 44 43 42 41 40 40 38 37 37 37 37 37 36 36 38 39 41 43 45 46 48 50 52 54 56 57 58 60 61 63 65 66 68 70 71 72 74 74 75 75 75 75 75 76 76 77 76 73 69
24 26 27 28 30 32 34 35 37 38 40 41 43 44 46 48 50 51 51 50 49 47 46 46 46 46 46 46 46 45 46 46 45 45 45 45 45 44 44 42 41 40 39 38 37 36 37 37 37 36 37 38 40 41 43 44 46 48 50 52 54 56 57 59 60 61 63 65 66 68 69 71 72 74 75 75 75 75 75 75 75 76 76 77 75 71 67
25 26 28 29 30 32 34 36 37 39 40 42 44 45 47 49 51 52 52 52 50 49 48 48 47 47 47 47 46 46 46 45 45 45 45 45 44 43 42 41 39 38 38 37 37 37 37 37 36 37 38 40 42 43 45 46 48 50 52 54 56 57 59 60 61 62 64 66 67 69 70 72 74 75 75 75 75 75 74 74 74 75 76 76 73 69 66
26 27 29 30 31 33 35 37 38 40 41 43 44 46 48 50 52 53 53 52 51 50 49 49 49 49 49 48 47 46 46 45 45 45 45 44 43 42 41 39 38 38 38 38 38 38 37 36 37 38 40 41 43 44 46 48 50 52 54 55 57 59 60 61 62 64 66 67 68 70 72 74 75 75 75 75 74 74 74 74 74 75 76 75 71 67 65
27 28 30 31 32 34 36 38 39 41 42 43 45 47 48 51 53 54 53 53 51 51 51 51 50 50 50 49 48 48 47 47 46 46 45 44 42 41 39 38 38 39 39 39 38 37 37 37 38 40 41 43 44 46 48 50 52 54 55 57 59 60 61 63 64 66 68 69 71 73 74 75 76 76 75 75 74 74 73 73 74 75 75 74 70 66 64
28 30 31 32 33 35 37 39 40 42 43 44 46 48 50 52 54 54 54 53 53 53 53 53 53 53 52 51 50 49 48 48 47 45 44 42 40 40 40 40 41 41 40 39 38 38 38 39 40 41 43 44 46 48 50 52 54 55 57 58 60 61 62 64 65 67 69 71 73 74 76 77 77 77 76 75 74 73 72 73 74 75 75 73 69 65 65
30 31 32 33 34 36 38 39 41 43 44 45 47 49 51 53 55 56 55 55 55 55 55 55 55 54 53 52 51 50 49 47 46 43 41 40 41 41 42 42 41 40 39 39 39 40 40 40 41 43 44 46 48 50 52 54 55 57 58 60 61 62 63 65 67 68 70 72 73 75 76 77 77 76 75 74 73 72 72 73 74 75 74 71 67 65 66
31 32 33 35 36 37 39 41 42 44 45 46 48 50 52 55 57 57 56 56 56 56 56 56 56 55 53 52 51 49 47 45 43 41 41 42 42 42 41 40 39 39 39 39 40 40 41 42 43 44 46 48 50 52 54 55 57 58 60 61 61 62 64 66 68 69 71 73 74 75 76 77 76 75 74 72 71 71 72 73 73 74 73 70 66 65 66
32 34 35 36 37 38 40 42 43 45 46 47 49 51 54 57 58 57 57 57 57 57 57 57 56 55 53 52 50 47 45 44 42 42 42 42 41 40 40 39 39 39 39 40 40 41 42 43 45 46 48 50 52 53 55 57 58 60 61 61 62 64 65 67 69 70 72 74 75 76 77 77 76 74 73 71 70 71 72 72 72 72 71 68 66 66 67
34 35 36 37 38 40 41 43 44 46 47 48 50 53 55 57 58 57 57 57 57 57 57 56 55 53 51 50 47 46 44 43 43 42 42 41 40 40 39 39 39 40 40 40 41 42 43 45 46 48 50 51 53 55 56 58 59 61 61 62 63 65 66 68 69 71 73 74 76 76 77 76 74 73 72 71 70 70 71 71 71 71 69 66 66 67 68
35 36 37 38 39 41 42 44 45 47 48 49 51 54 57 58 58 57 56 57 57 57 56 54 53 51 49 47 45 44 44 43 42 41 41 41 40 40 40 40 40 40 41 41 42 43 45 46 48 49 51 53 54 56 57 59 60 61 62 63 64 66 67 69 70 72 74 75 76 77 77 75 73 71 70 70 69 69 69 69 69 69 67 65 66 67 69
36 37 38 39 40 42 43 45 46 47 49 50 52 55 57 58 57 56 56 57 56 55 54 52 50 48 46 45 43 43 42 42 41 41 41 41 40 41 41 41 41 42 42 43 44 45 46 47 49 50 52 54 55 57 58 59 60 61 62 63 65 66 68 69 71 73 74 76 78 78 77 75 72 70 69 68 68 68 68 68 68 67 66 66 67 68 70
37 38 39 40 41 42 44 45 46 48 49 51 53 56 57 57 56 56 56 56 55 53 51 49 47 46 44 43 42 41 41 40 40 40 40 41 41 42 42 42 43 44 44 45 46 47 48 49 50 52 53 55 56 58 59 60 61 61 62 64 65 67 69 70 72 74 75 77 79 79 77 74 71 68 68 67 67 66 66 67 67 67 66 67 68 70 71
38 39 40 41 42 43 44 45 47 48 49 51 54 56 57 56 55 55 55 54 52 50 48 46 45 43 42 41 40 40 40 40 40 40 40 41 42 43 43 44 44 45 46 46 47 48 49 51 52 53 55 56 58 59 60 61 61 62 63 65 66 67 69 71 72 74 76 79 80 79 76 73 69 67 66 66 66 65 65 66 66 66 67 68 69 70 71
39 40 41 42 43 43 44 45 47 48 49 52 55 57 57 55 54 54 53 51 49 47 45 44 42 41 40 39 39 39 39 39 39 40 41 42 43 44 45 45 46 47 47 48 49 50 51 52 54 55 56 57 59 60 61 61 62 63 64 65 67 68 70 71 73 75 78 80 80 79 75 71 68 66 66 65 65 65 65 65 66 67 68 69 69 71 72
40 41 42 43 43 43 44 46 47 48 50 53 55 57 56 54 54 53 51 48 46 44 43 41 40 39 38 38 38 38 39 40 40 41 42 43 44 45 46 47 48 48 49 50 51 52 53 54 55 56 57 59 60 61 61 62 62 63 65 66 67 69 70 72 74 76 79 81 80 78 74 70 67 66 65 64 64 64 65 66 66 67 68 69 70 71 72
41 42 43 44 44 44 45 46 48 49 51 54 56 56 55 53 52 51 48 46 44 42 40 39 38 38 38 38 38 38 39 40 41 42 43 45 46 47 47 48 49 50 50 51 52 53 54 55 56 57 58 59 60 61 61 62 63 64 65 67 68 69 71 73 75 78 80 81 81 77 73 69 67 66 65 64 64 64 65 66 67 68 69 70 70 71 71
43 44 44 44 44 45 45 47 48 50 52 55 56 55 53 52 51 48 45 43 42 40 38 37 37 37 37 38 39 39 40 41 42 44 45 46 47 48 49 49 50 51 51 52 53 54 55 56 57 58 59 60 61 61 62 63 64 65 66 67 69 70 71 73 76 79 81 82 80 77 72 68 66 65 65 64 64 64 65 66 67 68 69 69 70 71 71
Wind_Direction
299 302 304 299 290 284 283 280 288 316 335 339 332 324 320 319 318 317 316 316 319 322 322 321 320 319 318 318 318 318 317 316 315 315 314 314 314 313 312 311 310 309 308 307 307 306 306 306 305 304 304 303 303 302 303 303 303 304 304 305 305 305 306 306 307 307 308 308 307 307 307 309 309 311 313 313 312 310 309 308 308 308 308 308 307 306 306
302 305 301 290 279 277 280 307 338 340 342 337 327 323 321 319 317 316 316 317 319 320 320 318 317 317 317 317 316 316 316 316 316 315 315 315 314 313 311 310 309 308 307 307 306 306 306 305 305 304 303 303 303 303 304 305 305 306 307 308 308 309 309 309 309 310 309 308 308 308 309 310 311 312 312 312 311 310 309 308 308 308 309 309 308 309 310
308 311 297 280 275 322 356 358 353 344 336 330 325 323 321 318 316 315 314 316 318 319 318 317 316 316 316 317 318 318 318 318 317 316 315 314 312 311 310 309 308 308 308 307 307 307 306 306 306 305 305 306 306 307 308 308 309 310 310 311 311 311 311 311 312 312 312 311 311 310 310 311 312 312 313 312 312 311 310 309 308 309 310 310 310 310 310
3 36 49 59 59 31 7 355 345 334 327 324 323 321 318 315 314 312 313 315 316 316 315 315 316 317 319 320 320 320 319 318 316 315 314 313 312 311 310 310 309 309 309 309 309 309 309 309 309 310 310 311 311 312 313 313 313 312 312 313 313 313 312 312 313 313 312 312 312 311 311 312 313 313 313 313 313 311 309 309 309 310 310 311 309 308 306
74 64 60 52 34 15 357 342 331 325 322 320 320 317 312 310 310 309 311 313 314 315 315 317 320 321 322 322 321 319 318 317 316 315 314 313 313 312 312 311 311 311 312 312 313 313 314 314 315 315 315 315 315 316 315 315 314 314 314 314 314 313 313 312 313 313 311 311 311 311 312 313 314 314 314 314 313 311 310 310 310 310 309 308 307 306 305
70 60 52 35 16 358 339 330 325 322 320 317 316 315 311 310 310 310 312 314 317 319 320 321 323 322 321 320 319 318 317 316 316 315 314 314 314 315 315 315 316 317 317 317 317 318 318 317 317 317 317 317 317 317 317 316 316 315 315 314 313 312 312 312 313 313 311 311 311 312 313 314 315 315 315 314 313 311 311 310 310 309 309 308 308 308 308
65 55 41 16 356 338 330 327 322 320 319 316 316 315 314 314 315 316 318 320 322 322 321 321 321 320 319 318 317 317 316 315 315 314 315 316 317 318 319 321 322 322 321 321 320 320 319 319 318 318 318 318 318 318 317 317 316 315 314 313 311 311 312 312 314 313 311 311 312 313 314 315 315 315 315 314 312 311 310 310 310 310 310 310 310 310 310
62 43 16 353 342 334 329 325 322 320 319 318 318 318 319 320 320 320 321 322 322 321 319 319 319 318 317 316 316 315 315 314 314 315 316 318 319 321 324 325 325 323 322 322 321 321 321 321 321 321 320 319 318 318 317 316 315 314 313 312 312 313 313 314 315 314 312 312 313 313 314 315 316 317 315 313 311 310 310 310 310 310 310 310 310 309 310
38 14 355 343 336 332 329 327 326 325 324 324 324 324 323 323 321 319 320 320 320 319 318 318 317 317 316 315 314 314 314 314 315 316 318 320 321 323 324 324 324 323 323 323 323 324 324 324 323 322 320 319 319 318 317 316 316 315 314 314 314 315 315 315 315 315 314 314 314 314 315 317 318 317 314 312 311 311 311 311 311 311 311 311 311 311 312
9 357 348 341 337 336 335 334 333 332 330 329 326 324 322 320 318 317 318 319 319 318 318 317 316 315 314 313 313 313 314 315 316 318 320 322 322 323 323 323 323 323 324 325 325 325 324 323 322 321 320 319 318 317 317 318 318 317 315 315 315 316 315 315 316 316 316 316 316 316 317 317 317 315 313 312 312 312 312 312 313 313 314 314 314 315 316
1 354 351 348 345 343 341 339 336 332 328 325 322 320 319 318 318 318 319 319 319 318 317 316 315 314 313 313 313 314 315 317 319 321 322 323 323 322 322 322 323 324 325 325 324 323 323 322 321 320 319 318 318 318 319 319 318 316 315 315 316 316 316 316 317 318 317 317 317 316 316 317 316 314 313 313 314 314 313 314 315 317 318 319 319 319 319
4 359 356 353 349 344 338 334 329 324 322 320 318 318 318 318 319 319 319 318 317 316 315 314 313 313 312 313 314 316 318 320 322 323 323 323 323 322 322 323 324 324 324 323 322 321 320 319 319 319 319 319 319 319 319 318 317 316 316 316 317 318 318 318 318 318 318 317 316 316 317 318 317 316 315 316 317 317 317 318 320 321 321 320 320 320 320
7 1 355 348 341 335 329 325 323 320 319 318 318 318 318 318 318 317 317 316 315 315 314 314 313 314 314 316 317 319 321 322 323 324 324 323 323 323 323 323 323 322 322 321 320 319 319 319 319 319 319 320 319 319 319 319 318 317 317 318 319 320 319 318 318 319 318 318 318 318 319 320 319 317 318 320 320 319 318 318 320 320 320 320 321 322 322
359 350 343 336 331 327 324 322 321 319 318 318 317 317 317 317 317 316 316 316 315 316 316 316 316 317 318 320 321 322 323 324 324 324 324 323 323 323 323 322 321 320 320 320 320 320 320 320 320 320 321 320 319 319 319 319 319 319 319 320 320 320 320 320 320 320 320 320 320 320 320 320 320 320 322 323 322 320 320 320 321 322 322 323 324 324 324
346 340 335 331 328 326 324 322 321 319 319 318 318 318 318 318 318 317 318 319 319 319 320 320 321 322 323 324 324 325 325 325 325 324 323 323 322 321 321 320 320 319 320 320 321 321 321 321 321 322 322 321 320 320 321 321 321 321 321 321 321 322 322 321 321 321 321 321 320 320 321 321 322 323 324 324 323 323 323 324 324 324 324 325 325 324 324
340 337 334 332 330 328 327 326 324 324 323 322 322 321 321 321 321 322 323 323 324 324 325 326 326 326 326 326 326 326 325 325 324 323 322 321 320 320 320 320 321 321 322 322 322 322 322 322 322 323 323 323 322 322 324 324 323 323 323 323 323 323 323 322 322 321 320 321 321 321 322 323 323 323 324 324 325 324 323 324 325 325 325 325 325 323 323
342 340 338 337 336 335 333 332 331 330 329 328 328 328 327 327 327 327 327 328 329 329 329 329 329 328 328 327 327 326 324 323 322 321 321 320 320 321 322 322 323 323 323 323 323 323 323 323 323 323 324 323 324 324 325 325 324 324 324 323 323 323 322 322 321 320 320 321 322 323 323 323 323 323 324 325 325 324 324 325 326 326 325 325 324 323 323
348 347 346 346 345 344 343 341 340 340 339 338 338 336 335 334 332 332 332 332 331 331 330 330 330 329 328 327 326 325 324 323 322 322 321 322 322 322 323 323 323 324 323 323 323 323 323 323 323 324 325 325 326 326 326 325 325 324 324 323 323 323 322 322 322 321 322 323 324 323 323 323 323 324 326 327 326 326 326 326 326 326 325 325 325 325 326
355 354 353 352 352 352 351 351 351 350 349 347 346 344 342 341 339 338 337 335 334 333 332 331 330 329 328 327 326 325 324 323 323 323 323 323 323 324 324 324 324 324 324 324 323 324 324 324 325 326 327 327 327 327 326 326 325 324 324 324 324 323 323 323 323 322 323 324 324 323 323 324 325 326 328 328 327 327 327 327 326 327 327 327 327 327 327
1 359 358 357 356 355 355 354 354 353 351 350 348 347 346 344 342 341 339 337 336 334 333 332 330 329 328 327 326 326 325 325 325 325 325 325 326 325 325 325 325 325 325 325 325 326 326 326 327 328 328 328 327 327 327 326 325 325 325 325 324 324 324 323 324 324 325 325 325 325 326 327 327 328 328 328 328 328 328 328 328 328 328 328 328 328 328
6 5 3 2 0 359 358 357 355 353 352 350 349 348 346 345 343 341 340 338 337 335 333 332 331 330 329 328 328 328 328 328 328 328 328 328 328 328 327 327 327 327 327 327 327 327 328 328 328 329 329 328 328 328 327 326 326 326 326 325 325 325 325 325 326 326 327 328 328 329 330 329 329 330 330 330 330 330 329 329 329 329 328 328 328 328 328
11 10 8 7 6 4 3 1 359 357 355 353 351 350 348 346 345 342 341 339 338 336 335 334 333 332 331 331 331 331 331 332 332 331 331 331 330 330 329 329 329 329 328 328 328 328 329 329 329 329 329 329 328 328 328 327 327 326 326 326 325 326 326 326 327 328 329 330 331 332 332 332 332 332 332 332 331 331 330 329 329 329 329 329 329 329 329
18 17 16 14 13 11 10 8 7 5 3 1 359 356 354 352 349 347 344 342 341 339 339 337 336 335 335 335 335 335 334 334 333 332 332 331 331 330 330 329 329 329 329 329 329 330 330 330 330 330 330 329 329 329 328 327 327 326 326 326 326 326 327 328 329 330 331 332 333 333 333 333 333 332 332 331 331 330 329 329 329 330 330 330 330 330 330
28 27 26 24 23 21 19 18 16 14 12 10 8 6 4 1 359 356 352 349 346 345 343 342 340 339 339 338 337 336 336 335 334 334 333 333 332 331 331 330 330 330 330 330 331 331 330 330 330 330 330 330 330 329 328 327 327 327 326 326 327 328 328 330 331 332 332 333 334 334 333 332 332 331 331 330 330 330 330 330 331 332 332 331 331 331 331
38 36 35 33 32 30 28 26 24 21 19 16 14 12 10 8 6 3 1 358 355 352 350 349 346 344 343 342 341 339 338 338 337 336 335 335 334 333 332 332 332 332 332 332 332 331 331 331 331 331 331 330 330 329 328 328 328 327 327 328 328 328 329 330 331 332 332 333 334 333 333 332 331 330 331 331 331 331 331 332 333 333 332 332 331 331 331
42 40 38 37 35 33 32 29 28 26 23 21 19 16 14 12 9 7 5 2 360 358 355 354 352 350 348 346 344 342 341 340 339 338 337 336 335 334 334 333 333 333 333 332 332 332 332 332 332 331 330 330 330 329 329 329 328 328 328 329 329 329 330 331 331 332 333 333 333 332 332 331 331 331 331 332 332 332 333 333 333 333 332 332 332 331 331
41 39 36 35 33 32 30 28 27 25 24 22 20 18 16 14 11 9 7 4 3 1 358 356 354 352 350 348 346 344 343 342 341 340 338 337 336 335 335 334 334 333 333 332 332 332 332 332 332 332 332 331 331 330 329 329 329 329 329 330 330 330 330 331 331 332 333 333 333 332 332 332 332 332 332 333 333 334 334 334 333 333 333 333 332 332 331
37 35 33 31 29 28 26 25 24 22 21 20 19 17 15 14 12 10 8 6 4 2 360 358 355 353 350 349 347 345 344 343 341 340 339 337 337 336 335 334 334 333 333 333 333 333 333 333 334 334 333 332 331 330 330 330 330 330 330 330 330 330 330 332 333 334 334 334 334 334 334 334 334 333 333 334 335 335 334 334 334 334 333 333 333 333 332
34 32 30 29 27 25 23 22 21 20 19 18 17 16 15 14 12 11 9 7 5 3 0 358 356 354 352 350 348 346 344 343 341 340 338 337 337 336 335 335 335 334 334 335 335 335 335 335 335 334 333 332 332 331 331 330 330 330 330 330 331 332 334 334 335 335 335 335 335 334 334 334 334 334 334 335 335 335 335 335 334 334 333 333 333 333 332
32 30 28 26 25 23 21 19 18 17 16 15 15 15 14 13 12 11 9 8 5 3 1 358 357 355 353 350 349 347 345 343 342 340 339 338 337 336 335 335 335 336 336 336 337 337 336 336 335 334 333 333 333 332 331 331 331 331 332 333 335 335 336 336 336 336 336 336 336 335 334 335 335 335 336 336 336 335 335 334 334 334 334 334 334 333 332
29 27 25 24 22 21 19 17 16 15 14 14 13 13 13 12 11 10 9 7 5 3 2 360 358 356 354 352 350 347 345 343 342 340 339 338 336 335 335 335 336 337 338 338 338 338 337 336 335 334 334 334 334 333 333 333 333 334 336 337 337 337 336 336 336 336 336 336 336 335 335 335 336 336 336 336 336 335 335 335 335 334 334 334 334 333 332
26 25 23 21 19 18 17 15 14 13 13 12 12 11 11 10 9 8 8 7 5 4 2 0 358 356 354 352 350 347 345 343 341 339 338 336 335 334 335 336 337 338 339 338 338 337 336 336 336 335 335 335 335 335 335 335 336 337 338 337 337 337 337 336 336 336 336 336 336 336 336 336 336 336 336 336 336 335 335 335 335 334 334 334 334 334 333
22 21 19 18 16 14 13 13 11 11 10 10 10 9 9 9 8 7 6 5 5 3 2 0 359 357 354 352 350 347 345 343 340 338 337 336 334 334 335 337 339 339 339 339 338 337 337 337 336 336 337 337 337 336 337 337 338 338 337 337 337 337 337 337 336 336 336 336 336 337 337 337 337 337 336 336 336 336 335 335 335 334 334 335 335 334 333
19 16 15 14 13 11 10 9 8 8 8 7 7 7 7 7 6 5 4 4 3 2 1 360 358 356 354 352 350 347 345 342 340 338 337 336 336 337 339 340 341 341 340 340 339 338 338 338 337 337 338 338 338 338 338 338 338 338 338 337 337 337 337 337 337 337 337 337 337 337 338 338 337 337 337 336 336 336 335 335 335 334 335 335 336 335 333
16 14 12 10 9 8 7 6 6 5 5 5 5 5 4 4 4 3 2 2 1 1 0 359 357 355 353 351 349 346 343 342 340 339 338 338 339 340 341 341 342 342 341 340 340 339 339 339 339 339 340 339 339 339 340 339 339 338 338 337 337 337 337 337 337 337 337 338 338 338 338 338 338 337 337 336 336 336 335 335 335 335 336 337 336 335 334
14 12 10 8 7 6 5 4 3 3 2 2 2 2 2 2 2 1 1 0 0 360 359 358 355 353 352 350 347 345 343 342 340 339 339 340 341 341 342 343 343 342 341 341 341 341 340 340 341 341 341 340 340 340 340 339 338 338 337 337 337 337 337 338 338 338 338 338 339 339 339 338 338 337 337 336 336 336 335 335 335 336 337 337 337 336 335
11 10 8 6 4 4 3 2 1 1 0 0 0 0 0 0 360 359 359 359 359 358 357 356 354 352 351 349 347 345 343 342 341 341 341 342 342 343 344 344 345 344 343 343 344 344 342 343 343 343 342 341 341 340 339 338 338 337 337 337 337 338 338 339 339 339 339 339 339 339 339 338 338 337 336 336 336 336 336 336 336 337 338 338 338 337 336
9 8 6 4 3 2 2 1 359 359 358 358 358 359 358 358 358 358 358 358 357 357 356 355 353 352 350 348 347 346 344 343 343 343 344 345 345 346 347 348 348 347 346 346 346 346 345 345 345 344 343 341 340 339 338 338 337 337 337 338 338 339 339 339 339 339 340 340 339 339 338 338 338 337 337 336 336 336 336 337 338 339 339 339 339 338 337
8 5 4 3 1 360 359 359 357 357 357 357 357 357 357 356 356 356 356 356 356 356 355 354 353 351 350 349 348 347 347 346 346 346 347 348 349 350 352 353 351 349 348 348 349 349 348 347 346 344 342 340 339 338 338 338 338 338 338 339 340 340 340 340 340 340 340 340 340 339 339 338 338 338 337 337 337 337 337 338 339 340 340 340 340 339 338
5 3 1 1 359 358 357 357 356 355 355 355 355 355 355 355 355 355 355 355 355 355 354 354 353 352 351 350 349 349 349 349 349 350 351 353 355 355 355 354 352 351 351 352 352 351 350 348 346 344 341 340 339 339 338 338 338 339 339 340 341 341 341 341 341 341 341 340 340 339 339 338 338 338 338 338 338 338 339 339 340 340 341 341 340 340 340
2 0 359 358 357 355 355 355 355 354 354 354 354 354 354 354 354 354 354 355 355 355 354 354 353 352 352 351 351 351 351 352 353 356 358 359 358 356 355 355 355 355 355 355 354 352 350 348 345 343 341 340 340 339 339 339 339 340 341 341 341 341 341 341 341 341 341 340 340 339 339 339 339 339 339 339 338 339 340 340 341 341 341 341 341 341 340
359 358 356 355 354 353 353 353 353 353 353 353 353 353 353 353 353 354 354 354 355 355 354 354 353 353 353 353 353 354 355 357 359 1 1 359 358 357 358 359 360 358 357 355 353 351 348 346 344 342 341 340 340 340 340 340 340 340 341 342 342 342 342 342 342 341 341 340 340 340 340 339 339 339 339 339 339 340 340 341 341 342 342 342 341 341 341
356 355 354 353 352 352 352 352 352 352 352 352 352 352 352 353 353 353 354 354 355 354 354 354 353 354 354 355 356 358 0 2 3 2 1 1 1 2 3 3 1 359 357 354 352 349 347 345 343 342 341 341 340 340 340 340 340 341 342 342 342 342 342 342 342 341 341 341 341 340 340 340 340 340 340 340 340 341 341 341 342 342 342 342 342 341 341
354 353 352 351 350 350 350 350 350 350 351 351 352 352 352 352 353 353 353 354 354 354 354 354 355 355 357 359 0 2 4 5 6 5 5 6 6 6 4 3 1 358 355 352 350 347 346 344 343 342 341 341 340 340 340 341 341 342 342 342 342 343 343 342 342 341 341 341 341 341 341 341 340 340 340 341 342 341 341 342 342 343 343 343 342 342 342
353 352 350 349 348 349 349 348 349 350 350 350 351 352 352 352 352 353 353 354 354 354 355 355 356 358 360 2 4 6 8 9 9 10 9 9 7 6 3 1 359 356 353 351 348 346 345 343 343 342 341 340 340 340 341 341 342 342 342 342 343 343 343 342 342 342 342 342 342 342 342 342 341 341 341 342 342 342 342 343 343 344 344 343 343 343 343
351 350 349 347 347 347 347 347 348 349 350 350 351 351 351 351 352 353 353 354 354 355 356 357 359 1 3 5 8 10 11 12 12 12 10 8 6 4 1 359 357 355 352 349 347 346 344 343 342 342 341 341 341 341 341 341 342 342 343 343 343 343 343 342 342 342 343 343 343 343 343 342 342 342 342 343 343 343 343 344 344 345 344 344 344 344 344
350 349 348 347 346 346 346 347 348 349 349 349 350 351 351 351 352 353 353 354 355 356 358 359 1 3 6 8 11 13 14 14 13 11 9 7 4 2 359 357 355 353 351 348 347 345 344 343 342 342 341 341 341 341 341 342 342 343 343 343 343 343 343 343 343 343 343 344 344 344 343 343 343 344 343 343 344 344 345 345 345 345 345 345 345 345 344
349 348 347 346 345 345 345 346 347 348 348 349 350 350 350 351 352 353 354 355 356 358 359 1 3 6 8 11 13 14 14 13 11 9 7 4 2 360 357 355 353 351 349 348 346 345 344 343 342 342 341 341 341 341 341 342 343 343 344 343 343 343 343 343 343 344 344 345 345 344 344 344 344 345 345 345 345 346 346 346 346 346 346 345 345 345 345
349 348 347 345 345 344 345 346 347 347 348 349 349 350 350 351 352 353 354 356 358 360 1 2 5 8 10 12 13 13 12 11 9 6 4 2 359 357 355 354 352 350 348 347 346 345 344 343 342 341 341 341 341 341 342 343 343 344 344 343 343 343 343 344 344 345 345 346 345 345 345 345 346 346 346 346 346 346 347 347 347 346 346 346 345 345 346
349 347 346 345 345 344 345 345 346 347 348 349 349 350 350 351 352 353 354 357 359 1 2 4 7 9 11 12 12 11 9 7 5 3 1 359 357 355 354 352 351 349 348 347 345 344 344 343 342 341 341 341 341 342 342 343 344 344 344 344 344 344 344 344 345 345 346 347 346 346 346 346 347 347 348 348 347 347 348 348 348 347 346 346 346 346 346
348 347 346 345 345 344 345 346 346 347 348 349 349 350 350 351 352 353 355 357 360 1 3 6 8 10 10 11 10 8 5 3 1 360 359 357 355 354 352 351 350 348 347 346 345 344 343 343 342 342 341 341 341 342 343 343 344 344 344 344 344 344 344 345 345 346 347 347 347 347 347 347 348 348 349 349 349 348 348 349 348 348 347 346 346 346 346
348 347 346 345 344 344 345 346 346 347 348 348 349 349 350 351 352 353 355 358 360 2 3 6 8 9 9 8 6 4 2 0 359 358 357 356 354 353 351 350 349 348 347 346 345 344 343 343 342 342 342 342 342 342 343 344 344 344 344 344 344 345 345 345 346 347 348 348 348 347 347 347 348 349 349 349 349 349 349 349 349 348 348 347 346 346 347